#�ϑ�����,���ϕ���,���ϕ���,�ő啗��,�ő啗����������,�ő�u�ԕ���,�ő�u�ԕ�����������
#(�N����),(m/s)   ,(16����),(m/s)   ,(16����)        ,(m/s)       ,(16����)            
2018/1/25 0:01,2.4,10,2.4,10,6.3,10
2018/1/25 0:02,2.1,10,2.4,10,3.3,11
2018/1/25 0:03,2.1,10,2.1,10,4.1,10
2018/1/25 0:04,2,10,2.1,10,3.8,10
2018/1/25 0:05,1.9,10,2,10,3.6,9
2018/1/25 0:06,1.7,10,1.8,10,3.6,9
2018/1/25 0:07,1.8,10,1.8,10,4.1,9
2018/1/25 0:08,2,10,2,10,4.7,11
2018/1/25 0:09,2.3,10,2.3,10,5.2,10
2018/1/25 0:10,2.3,10,2.3,10,5.1,9
2018/1/25 0:11,2.4,10,2.4,10,5.1,10
2018/1/25 0:12,2.5,10,2.5,10,4.4,9
2018/1/25 0:13,2.5,10,2.5,10,8.1,9
2018/1/25 0:14,2.6,10,2.6,10,6.1,8
2018/1/25 0:15,2.7,10,2.7,10,7.7,10
2018/1/25 0:16,2.9,10,2.9,10,6.3,11
2018/1/25 0:17,3.1,10,3.1,10,7.1,10
2018/1/25 0:18,3.2,10,3.2,10,6.2,9
2018/1/25 0:19,3.1,10,3.2,10,5.1,9
2018/1/25 0:20,3.1,10,3.1,10,4.9,11
2018/1/25 0:21,3,10,3.1,10,8.7,10
2018/1/25 0:22,3.3,10,3.3,10,9.2,10
2018/1/25 0:23,3.3,10,3.5,10,7,10
2018/1/25 0:24,3.3,10,3.3,10,4.5,9
2018/1/25 0:25,3.3,10,3.3,10,4.1,8
2018/1/25 0:26,3.3,10,3.3,10,5.6,10
2018/1/25 0:27,3.1,10,3.3,10,4.5,10
2018/1/25 0:28,3,10,3.1,10,4.9,10
2018/1/25 0:29,3.1,10,3.1,10,6.1,11
2018/1/25 0:30,3.2,10,3.2,10,6.3,10
2018/1/25 0:31,3.2,10,3.3,10,4.8,10
2018/1/25 0:32,3,10,3.2,10,5.2,10
2018/1/25 0:33,2.9,10,3,10,4.7,9
2018/1/25 0:34,2.9,10,2.9,10,5.5,9
2018/1/25 0:35,2.7,10,2.9,10,3,10
2018/1/25 0:36,2.6,10,2.7,10,4.8,9
2018/1/25 0:37,2.6,10,2.6,10,5.8,10
2018/1/25 0:38,2.6,10,2.6,10,6.7,11
2018/1/25 0:39,2.4,10,2.6,10,3.6,10
2018/1/25 0:40,2.2,10,2.4,10,2.4,12
2018/1/25 0:41,2.1,10,2.2,10,3.5,10
2018/1/25 0:42,2,10,2.1,10,3.1,10
2018/1/25 0:43,1.9,10,1.9,10,3.8,11
2018/1/25 0:44,1.9,10,1.9,10,4.3,10
2018/1/25 0:45,1.9,10,1.9,10,3.2,9
2018/1/25 0:46,2,10,2,10,4.2,11
2018/1/25 0:47,2.1,10,2.1,10,5.5,10
2018/1/25 0:48,1.9,10,2,10,3.2,10
2018/1/25 0:49,1.8,10,1.9,10,3.7,9
2018/1/25 0:50,1.9,10,1.9,10,3.6,9
2018/1/25 0:51,2,10,2,10,5.1,11
2018/1/25 0:52,2.2,10,2.2,10,6.2,11
2018/1/25 0:53,2.5,10,2.5,10,6,10
2018/1/25 0:54,2.7,10,2.7,10,6.3,10
2018/1/25 0:55,2.7,10,2.7,10,4.3,10
2018/1/25 0:56,2.6,10,2.7,10,4.2,9
2018/1/25 0:57,2.4,10,2.5,10,3.8,10
2018/1/25 0:58,2.6,10,2.6,10,4.9,10
2018/1/25 0:59,2.8,10,2.8,10,8.1,10
2018/1/25 1:00,2.9,10,2.9,10,5.8,11
2018/1/25 1:01,2.9,10,3,10,5.1,10
2018/1/25 1:02,2.8,10,2.9,10,4.4,9
2018/1/25 1:03,2.7,10,2.8,10,4.9,9
2018/1/25 1:04,2.5,10,2.6,10,4.9,9
2018/1/25 1:05,2.5,10,2.5,10,5.2,9
2018/1/25 1:06,2.6,10,2.6,10,7.5,9
2018/1/25 1:07,2.9,10,2.9,10,7.6,10
2018/1/25 1:08,2.8,10,2.8,10,6.4,9
2018/1/25 1:09,2.7,10,2.8,10,4.2,10
2018/1/25 1:10,2.6,10,2.7,10,6.4,9
2018/1/25 1:11,2.5,10,2.6,10,4.8,10
2018/1/25 1:12,2.5,10,2.6,10,4.4,10
2018/1/25 1:13,2.4,10,2.5,10,5.1,10
2018/1/25 1:14,2.5,10,2.6,10,7.2,9
2018/1/25 1:15,2.6,10,2.7,10,6.8,9
2018/1/25 1:16,2.6,10,2.7,10,4.4,10
2018/1/25 1:17,2.2,10,2.5,10,3.5,10
2018/1/25 1:18,2.1,10,2.2,10,4.2,9
2018/1/25 1:19,2,10,2,10,1.5,10
2018/1/25 1:20,1.8,10,1.9,10,3.5,9
2018/1/25 1:21,1.7,10,1.8,10,2.9,9
2018/1/25 1:22,1.7,10,1.7,10,6.7,10
2018/1/25 1:23,2,10,2,10,6.7,10
2018/1/25 1:24,1.9,10,2,10,5.2,9
2018/1/25 1:25,1.8,10,1.9,10,4.9,10
2018/1/25 1:26,1.8,10,1.9,10,6.1,9
2018/1/25 1:27,2.1,10,2.1,10,5.4,9
2018/1/25 1:28,2.4,10,2.4,10,7.9,11
2018/1/25 1:29,2.8,10,2.8,10,6,11
2018/1/25 1:30,2.9,10,3,10,5.8,9
2018/1/25 1:31,3,10,3,10,4.3,8
2018/1/25 1:32,3,10,3,10,3.7,9
2018/1/25 1:33,2.8,10,3,10,4.4,9
2018/1/25 1:34,2.7,10,2.8,10,4.4,8
2018/1/25 1:35,2.7,10,2.7,10,5,9
2018/1/25 1:36,2.8,10,2.8,10,5.4,11
2018/1/25 1:37,2.6,10,2.8,10,3.9,9
2018/1/25 1:38,2.3,10,2.6,10,2.5,9
2018/1/25 1:39,2,10,2.3,10,2.9,10
2018/1/25 1:40,1.8,10,2,10,2,8
2018/1/25 1:41,1.8,10,1.8,10,4.4,11
2018/1/25 1:42,1.8,10,1.8,10,4.1,10
2018/1/25 1:43,1.6,10,1.8,10,1.5,10
2018/1/25 1:44,1.6,10,1.6,10,1.9,9
2018/1/25 1:45,1.5,10,1.6,10,2.4,10
2018/1/25 1:46,1.2,10,1.5,10,2.2,9
2018/1/25 1:47,1.2,10,1.2,10,2.5,9
2018/1/25 1:48,1.2,10,1.2,10,2.4,10
2018/1/25 1:49,1.2,10,1.3,10,4.8,9
2018/1/25 1:50,1.3,10,1.3,10,3,10
2018/1/25 1:51,1.3,11,1.3,10,2.9,10
2018/1/25 1:52,1.3,10,1.3,10,3.7,10
2018/1/25 1:53,1.5,10,1.5,10,4.4,10
2018/1/25 1:54,1.6,10,1.6,10,2.7,9
2018/1/25 1:55,1.6,10,1.6,11,2.7,8
2018/1/25 1:56,1.7,10,1.7,10,3.8,7
2018/1/25 1:57,1.8,10,1.8,10,3.6,9
2018/1/25 1:58,1.8,10,1.9,10,3.8,9
2018/1/25 1:59,1.8,10,1.9,10,3.9,9
2018/1/25 2:00,1.8,10,1.9,10,2.6,10
2018/1/25 2:01,1.7,10,1.8,10,1.5,8
2018/1/25 2:02,1.5,10,1.7,10,0.5,9
2018/1/25 2:03,1.3,9,1.5,10,0.8,7
2018/1/25 2:04,1.2,9,1.3,10,2.2,9
2018/1/25 2:05,1.1,9,1.2,10,2,9
2018/1/25 2:06,1,9,1.1,10,2.4,8
2018/1/25 2:07,0.9,9,1,10,1.9,9
2018/1/25 2:08,0.7,9,0.8,10,0.4,9
2018/1/25 2:09,0.6,9,0.7,10,0.8,6
2018/1/25 2:10,0.5,9,0.6,10,0.4,7
2018/1/25 2:11,0.5,9,0.5,10,0.9,7
2018/1/25 2:12,0.5,9,0.5,10,0.5,12
2018/1/25 2:13,0.5,9,0.5,9,0.8,16
2018/1/25 2:14,0.4,10,0.5,9,0.5,16
2018/1/25 2:15,0.3,10,0.3,9,0.8,12
2018/1/25 2:16,0.2,11,0.3,9,0.6,13
2018/1/25 2:17,0.2,11,0.2,9,0.5,12
2018/1/25 2:18,0.2,11,0.2,9,0.5,11
2018/1/25 2:19,0.2,12,0.2,9,2.1,12
2018/1/25 2:20,0.3,12,0.3,9,2.1,12
2018/1/25 2:21,0.3,12,0.3,9,1.8,9
2018/1/25 2:22,0.4,12,0.4,9,1.8,10
2018/1/25 2:23,0.4,12,0.4,9,1,9
2018/1/25 2:24,0.5,11,0.5,11,2.5,10
2018/1/25 2:25,0.6,11,0.6,11,2,9
2018/1/25 2:26,0.7,11,0.7,11,2.4,9
2018/1/25 2:27,0.9,11,0.9,11,4.4,9
2018/1/25 2:28,0.9,11,0.9,11,1.6,7
2018/1/25 2:29,1,10,1,10,1.9,8
2018/1/25 2:30,1,10,1,10,2.2,10
2018/1/25 2:31,1,10,1,10,1.5,12
2018/1/25 2:32,1,10,1,10,1.5,10
2018/1/25 2:33,1,10,1,10,2.5,9
2018/1/25 2:34,0.9,9,1,10,1.4,7
2018/1/25 2:35,0.9,9,0.9,10,1.5,8
2018/1/25 2:36,0.8,9,0.9,10,1.5,8
2018/1/25 2:37,0.8,9,0.8,10,2.7,8
2018/1/25 2:38,0.9,9,0.9,10,3,9
2018/1/25 2:39,0.8,9,0.9,10,1.8,9
2018/1/25 2:40,0.8,9,0.8,10,0.6,9
2018/1/25 2:41,0.7,9,0.8,10,0.3,1
2018/1/25 2:42,0.7,9,0.7,10,1.3,8
2018/1/25 2:43,0.8,8,0.8,10,2.5,8
2018/1/25 2:44,0.8,8,0.8,9,2.5,8
2018/1/25 2:45,0.8,8,0.8,9,1.6,4
2018/1/25 2:46,0.8,8,0.8,9,1.4,4
2018/1/25 2:47,0.8,8,0.8,9,3.2,10
2018/1/25 2:48,0.8,8,0.8,9,2.2,10
2018/1/25 2:49,0.9,8,0.9,8,1.8,9
2018/1/25 2:50,1,8,1,8,3.2,8
2018/1/25 2:51,1.2,8,1.2,8,3.2,8
2018/1/25 2:52,1.3,8,1.3,8,2.9,8
2018/1/25 2:53,1.3,8,1.3,8,3,9
2018/1/25 2:54,1.3,8,1.3,8,1.8,9
2018/1/25 2:55,1.3,9,1.4,9,2,9
2018/1/25 2:56,1.3,9,1.3,9,0.4,9
2018/1/25 2:57,1.2,10,1.3,9,1.6,12
2018/1/25 2:58,1.1,10,1.2,9,1.8,12
2018/1/25 2:59,1.1,10,1.1,9,2.1,12
2018/1/25 3:00,1.1,10,1.1,9,2.4,10
2018/1/25 3:01,1,10,1.1,9,1.4,9
2018/1/25 3:02,0.9,11,1,9,2,11
2018/1/25 3:03,0.9,11,0.9,9,1.8,13
2018/1/25 3:04,0.9,11,0.9,9,2,11
2018/1/25 3:05,0.9,11,0.9,9,1,11
2018/1/25 3:06,0.9,11,0.9,9,0.5,12
2018/1/25 3:07,0.8,11,0.9,10,1,14
2018/1/25 3:08,0.8,12,0.8,10,1,13
2018/1/25 3:09,0.7,11,0.8,10,0.1,9
2018/1/25 3:10,0.6,11,0.7,10,0.3,7
2018/1/25 3:11,0.5,11,0.6,10,0.3,7
2018/1/25 3:12,0.4,11,0.5,11,1.1,8
2018/1/25 3:13,0.3,11,0.4,11,0.6,9
2018/1/25 3:14,0.2,10,0.3,11,0.1,10
2018/1/25 3:15,0.2,9,0.2,11,1.1,8
2018/1/25 3:16,0.2,9,0.2,11,0.4,9
2018/1/25 3:17,0.2,8,0.2,11,0.5,16
2018/1/25 3:18,0.1,8,0.2,12,0.5,13
2018/1/25 3:19,0.2,8,0.2,11,0.9,15
2018/1/25 3:20,0.2,9,0.2,11,0.9,15
2018/1/25 3:21,0.3,9,0.3,11,0.6,8
2018/1/25 3:22,0.2,10,0.3,11,1,7
2018/1/25 3:23,0.3,10,0.3,11,1.3,8
2018/1/25 3:24,0.4,11,0.4,10,3.2,10
2018/1/25 3:25,0.6,11,0.6,11,3.1,11
2018/1/25 3:26,0.8,12,0.8,12,2.7,10
2018/1/25 3:27,0.9,12,0.9,12,2.9,12
2018/1/25 3:28,1.1,12,1.1,12,2.5,12
2018/1/25 3:29,1.1,11,1.2,11,1.9,9
2018/1/25 3:30,1.1,11,1.1,11,1,10
2018/1/25 3:31,1.2,11,1.2,11,2.7,10
2018/1/25 3:32,1.4,11,1.4,11,3.1,11
2018/1/25 3:33,1.6,11,1.6,11,4.5,11
2018/1/25 3:34,1.7,11,1.8,11,4.5,11
2018/1/25 3:35,1.7,11,1.7,11,3.6,11
2018/1/25 3:36,1.7,11,1.7,11,3,10
2018/1/25 3:37,1.6,11,1.6,11,3,12
2018/1/25 3:38,1.7,11,1.7,11,3.2,11
2018/1/25 3:39,1.7,12,1.7,11,2.9,12
2018/1/25 3:40,1.8,12,1.8,11,2.6,13
2018/1/25 3:41,1.8,12,1.8,11,2.1,8
2018/1/25 3:42,1.8,11,1.8,11,4.1,8
2018/1/25 3:43,1.6,11,1.8,11,1.9,7
2018/1/25 3:44,1.5,11,1.6,12,3,9
2018/1/25 3:45,1.5,11,1.5,12,2.4,13
2018/1/25 3:46,1.5,11,1.5,12,2.6,13
2018/1/25 3:47,1.4,11,1.5,12,2,12
2018/1/25 3:48,1.4,11,1.4,12,2.5,12
2018/1/25 3:49,1.3,11,1.4,12,1.9,9
2018/1/25 3:50,1.4,11,1.4,12,3.1,10
2018/1/25 3:51,1.3,11,1.4,11,1.5,12
2018/1/25 3:52,1.2,12,1.3,11,2.5,12
2018/1/25 3:53,1.3,12,1.3,11,2.1,11
2018/1/25 3:54,1.2,12,1.3,11,2,11
2018/1/25 3:55,1.3,12,1.3,11,4.1,9
2018/1/25 3:56,1.3,11,1.3,11,2.5,11
2018/1/25 3:57,1.2,11,1.2,11,2,8
2018/1/25 3:58,1.1,11,1.2,11,3.3,7
2018/1/25 3:59,1.2,11,1.2,11,3.9,9
2018/1/25 4:00,1.4,11,1.4,11,5.2,9
2018/1/25 4:01,1.7,10,1.7,10,7,11
2018/1/25 4:02,1.8,10,1.8,10,4.9,12
2018/1/25 4:03,1.8,10,1.8,10,3,10
2018/1/25 4:04,1.8,10,1.8,10,3.5,10
2018/1/25 4:05,1.7,10,1.9,10,2.7,9
2018/1/25 4:06,1.8,10,1.8,10,3.6,9
2018/1/25 4:07,1.8,10,1.8,10,2,11
2018/1/25 4:08,1.9,10,1.9,10,4.8,11
2018/1/25 4:09,1.9,10,1.9,10,2.9,10
2018/1/25 4:10,1.8,10,1.9,10,3,11
2018/1/25 4:11,1.6,11,1.8,10,3.6,13
2018/1/25 4:12,1.5,11,1.6,10,3.3,13
2018/1/25 4:13,1.6,11,1.6,10,3.5,10
2018/1/25 4:14,1.6,11,1.6,10,3.6,11
2018/1/25 4:15,1.6,11,1.7,10,2.6,10
2018/1/25 4:16,1.6,11,1.6,10,1.9,8
2018/1/25 4:17,1.8,11,1.8,10,6.7,9
2018/1/25 4:18,1.7,11,1.8,10,3.2,9
2018/1/25 4:19,1.7,11,1.8,10,5,8
2018/1/25 4:20,1.9,11,1.9,11,6,10
2018/1/25 4:21,1.9,10,1.9,11,4.5,9
2018/1/25 4:22,1.9,10,1.9,11,3.6,9
2018/1/25 4:23,1.8,10,1.9,11,1.5,14
2018/1/25 4:24,1.9,10,1.9,11,3.1,10
2018/1/25 4:25,1.8,10,1.8,11,4.5,11
2018/1/25 4:26,2,10,2,10,5.8,11
2018/1/25 4:27,2,10,2.1,10,5.4,12
2018/1/25 4:28,2.3,10,2.3,10,7.1,11
2018/1/25 4:29,2.4,10,2.4,10,6.1,9
2018/1/25 4:30,2.5,11,2.5,11,5.2,10
2018/1/25 4:31,2.6,11,2.6,11,5.4,10
2018/1/25 4:32,2.7,11,2.7,11,5,10
2018/1/25 4:33,2.8,10,2.8,11,3.7,10
2018/1/25 4:34,2.9,10,2.9,10,4.7,11
2018/1/25 4:35,3,10,3,10,4.3,10
2018/1/25 4:36,3,10,3.1,10,3.9,10
2018/1/25 4:37,2.9,10,3,10,4.1,10
2018/1/25 4:38,2.6,10,2.8,10,2.1,10
2018/1/25 4:39,2.5,10,2.6,10,3,10
2018/1/25 4:40,2.3,10,2.5,10,3.2,10
2018/1/25 4:41,2.1,10,2.3,10,3.5,10
2018/1/25 4:42,2.1,10,2.1,10,3.7,11
2018/1/25 4:43,2.1,10,2.1,10,5,10
2018/1/25 4:44,2.1,10,2.1,10,5.6,10
2018/1/25 4:45,2.2,10,2.2,10,5.1,10
2018/1/25 4:46,2.1,10,2.2,10,4.5,9
2018/1/25 4:47,2.2,10,2.2,10,3.6,10
2018/1/25 4:48,2.3,10,2.3,10,3.9,11
2018/1/25 4:49,2.2,10,2.3,10,2.7,9
2018/1/25 4:50,2.2,10,2.2,10,4.8,9
2018/1/25 4:51,2.4,10,2.4,10,5.4,9
2018/1/25 4:52,2.4,10,2.5,10,4.2,10
2018/1/25 4:53,2.5,10,2.5,10,4.4,10
2018/1/25 4:54,2.5,10,2.6,10,4.3,10
2018/1/25 4:55,2.3,10,2.5,10,2,12
2018/1/25 4:56,2.1,11,2.2,10,2.2,13
2018/1/25 4:57,2,11,2.1,10,2.5,13
2018/1/25 4:58,2,11,2,10,3,12
2018/1/25 4:59,2.1,11,2.1,10,4.3,10
2018/1/25 5:00,2.2,11,2.2,10,3.9,11
2018/1/25 5:01,2,11,2.2,10,4.5,8
2018/1/25 5:02,1.9,11,2,10,2.4,9
2018/1/25 5:03,1.8,11,1.9,10,3.2,10
2018/1/25 5:04,1.9,11,1.9,10,5,10
2018/1/25 5:05,2.2,11,2.2,10,5.2,9
2018/1/25 5:06,2.4,11,2.4,11,4.9,10
2018/1/25 5:07,2.5,10,2.5,11,2.6,10
2018/1/25 5:08,2.5,10,2.5,11,3.8,11
2018/1/25 5:09,2.5,10,2.5,11,3.8,10
2018/1/25 5:10,2.4,10,2.5,11,3.8,11
2018/1/25 5:11,2.3,11,2.4,11,3.1,11
2018/1/25 5:12,2.3,11,2.3,11,1.6,12
2018/1/25 5:13,2.3,11,2.3,11,3.5,11
2018/1/25 5:14,2.2,11,2.3,11,3.3,11
2018/1/25 5:15,2,11,2.1,11,2.4,12
2018/1/25 5:16,1.8,12,1.9,11,2.2,13
2018/1/25 5:17,1.8,12,1.8,10,2.2,13
2018/1/25 5:18,1.7,12,1.8,10,1.9,11
2018/1/25 5:19,1.5,12,1.6,10,2.4,11
2018/1/25 5:20,1.5,12,1.5,10,2.9,10
2018/1/25 5:21,1.6,12,1.6,11,2.9,11
2018/1/25 5:22,1.6,12,1.6,11,2.6,11
2018/1/25 5:23,1.6,12,1.7,11,2.9,10
2018/1/25 5:24,1.6,11,1.6,11,3.2,10
2018/1/25 5:25,1.6,11,1.6,11,3,11
2018/1/25 5:26,1.7,11,1.7,12,2.9,10
2018/1/25 5:27,1.7,11,1.7,12,3,10
2018/1/25 5:28,1.8,11,1.8,11,3,10
2018/1/25 5:29,1.8,11,1.9,11,2.6,10
2018/1/25 5:30,1.9,11,1.9,11,2.5,14
2018/1/25 5:31,1.8,11,1.9,11,2.7,11
2018/1/25 5:32,1.9,11,1.9,11,2.7,10
2018/1/25 5:33,1.8,11,1.9,11,2.4,11
2018/1/25 5:34,1.7,11,1.8,11,1.5,11
2018/1/25 5:35,1.6,11,1.7,11,0.9,11
2018/1/25 5:36,1.4,11,1.5,11,1.4,10
2018/1/25 5:37,1.3,11,1.4,11,2.4,10
2018/1/25 5:38,1.3,11,1.3,11,2.2,9
2018/1/25 5:39,1.2,11,1.3,11,2.4,9
2018/1/25 5:40,1.1,11,1.2,11,2,9
2018/1/25 5:41,1.1,11,1.1,11,1.9,10
2018/1/25 5:42,1.1,11,1.1,11,2.7,10
2018/1/25 5:43,1.1,11,1.1,11,2.7,11
2018/1/25 5:44,1.2,11,1.2,11,2.4,10
2018/1/25 5:45,1.3,11,1.3,11,3.1,9
2018/1/25 5:46,1.4,11,1.4,11,3.1,11
2018/1/25 5:47,1.5,11,1.5,11,2.7,10
2018/1/25 5:48,1.6,11,1.6,11,3,9
2018/1/25 5:49,1.6,11,1.6,11,3,11
2018/1/25 5:50,1.7,11,1.7,11,2.9,10
2018/1/25 5:51,1.7,11,1.7,11,2.2,9
2018/1/25 5:52,1.6,11,1.7,11,1.5,10
2018/1/25 5:53,1.5,11,1.6,11,2.5,11
2018/1/25 5:54,1.5,10,1.5,11,2.4,11
2018/1/25 5:55,1.4,11,1.5,11,1.8,10
2018/1/25 5:56,1.3,10,1.4,11,1.9,10
2018/1/25 5:57,1.2,11,1.3,11,1.4,10
2018/1/25 5:58,1.1,11,1.2,11,1.9,11
2018/1/25 5:59,1,11,1.1,11,1,13
2018/1/25 6:00,0.8,11,1,11,0.3,9
2018/1/25 6:01,0.7,11,0.8,11,1.5,12
2018/1/25 6:02,0.7,11,0.7,11,1.8,11
2018/1/25 6:03,0.7,11,0.7,11,1.8,10
2018/1/25 6:04,0.7,11,0.8,10,1.9,11
2018/1/25 6:05,0.8,11,0.8,11,2.4,11
2018/1/25 6:06,0.8,11,0.8,11,2.2,12
2018/1/25 6:07,0.8,11,0.8,11,1.3,13
2018/1/25 6:08,0.8,11,0.8,11,1.8,12
2018/1/25 6:09,0.9,11,0.9,11,2.6,9
2018/1/25 6:10,1,11,1,11,2.6,11
2018/1/25 6:11,1.2,11,1.2,11,2.5,11
2018/1/25 6:12,1.3,11,1.3,11,3.3,10
2018/1/25 6:13,1.4,11,1.4,11,3,10
2018/1/25 6:14,1.5,11,1.5,11,2.9,10
2018/1/25 6:15,1.5,11,1.5,11,3.1,9
2018/1/25 6:16,1.6,10,1.6,10,3,10
2018/1/25 6:17,1.7,10,1.7,10,1.8,10
2018/1/25 6:18,1.6,10,1.6,10,2,11
2018/1/25 6:19,1.7,10,1.7,10,3.2,10
2018/1/25 6:20,1.6,10,1.7,10,2,8
2018/1/25 6:21,1.4,10,1.5,10,1.5,12
2018/1/25 6:22,1.4,10,1.4,10,2.1,12
2018/1/25 6:23,1.2,11,1.4,10,1.1,10
2018/1/25 6:24,1,11,1.2,10,0.8,15
2018/1/25 6:25,0.8,11,1,10,0.1,12
2018/1/25 6:26,0.7,11,0.8,10,0.9,10
2018/1/25 6:27,0.8,11,0.8,10,3,10
2018/1/25 6:28,0.9,11,0.9,10,4.3,10
2018/1/25 6:29,0.9,12,0.9,10,3.8,11
2018/1/25 6:30,0.9,12,1,10,1.6,10
2018/1/25 6:31,1.1,12,1.1,10,2.7,9
2018/1/25 6:32,1,12,1,10,1.6,12
2018/1/25 6:33,1,12,1,11,0.9,16
2018/1/25 6:34,1,11,1,12,1.1,8
2018/1/25 6:35,1,11,1,12,1,16
2018/1/25 6:36,1,11,1,12,0.3,5
2018/1/25 6:37,0.9,11,1,12,2.1,12
2018/1/25 6:38,0.8,11,0.9,12,1.8,9
2018/1/25 6:39,0.8,11,0.8,12,2.2,10
2018/1/25 6:40,0.7,11,0.8,12,1.1,9
2018/1/25 6:41,0.6,11,0.7,12,0.3,11
2018/1/25 6:42,0.5,11,0.6,12,1,13
2018/1/25 6:43,0.5,12,0.5,12,0.8,16
2018/1/25 6:44,0.5,12,0.5,11,0.3,4
2018/1/25 6:45,0.4,12,0.5,11,0.4,12
2018/1/25 6:46,0.5,12,0.5,11,1.3,13
2018/1/25 6:47,0.5,12,0.5,11,1.1,13
2018/1/25 6:48,0.4,13,0.5,11,0.9,14
2018/1/25 6:49,0.3,13,0.4,11,1,14
2018/1/25 6:50,0.3,13,0.3,11,0.6,13
2018/1/25 6:51,0.4,13,0.4,11,1.3,11
2018/1/25 6:52,0.5,12,0.5,11,2.4,10
2018/1/25 6:53,0.5,12,0.5,12,1.9,14
2018/1/25 6:54,0.6,12,0.6,12,1.3,13
2018/1/25 6:55,0.6,13,0.6,12,0.4,15
2018/1/25 6:56,0.5,12,0.6,12,0.5,10
2018/1/25 6:57,0.5,12,0.5,12,1.4,11
2018/1/25 6:58,0.6,12,0.6,12,1.9,12
2018/1/25 6:59,0.6,12,0.6,12,5.2,9
2018/1/25 7:00,0.8,12,0.8,12,3.6,10
2018/1/25 7:01,0.8,12,0.8,12,2.2,13
2018/1/25 7:02,0.8,12,0.8,12,3.9,10
2018/1/25 7:03,0.8,11,0.9,12,3.8,11
2018/1/25 7:04,1.1,11,1.1,11,4.8,10
2018/1/25 7:05,1.3,10,1.3,10,3.3,11
2018/1/25 7:06,1.4,10,1.4,10,3.7,9
2018/1/25 7:07,1.6,10,1.6,10,3.5,11
2018/1/25 7:08,1.7,10,1.7,10,3.5,10
2018/1/25 7:09,1.6,11,1.7,10,2,11
2018/1/25 7:10,1.6,11,1.7,10,4.1,10
2018/1/25 7:11,1.7,11,1.7,10,3.1,9
2018/1/25 7:12,1.7,11,1.7,10,2.4,13
2018/1/25 7:13,1.7,11,1.7,10,2.1,11
2018/1/25 7:14,1.5,11,1.7,10,2.2,10
2018/1/25 7:15,1.4,11,1.5,10,1,16
2018/1/25 7:16,1.4,12,1.4,10,3.3,12
2018/1/25 7:17,1.3,12,1.4,10,3.3,12
2018/1/25 7:18,1.2,12,1.3,10,1.3,14
2018/1/25 7:19,1.4,12,1.4,11,4.3,13
2018/1/25 7:20,1.3,12,1.4,10,1.5,16
2018/1/25 7:21,1.2,12,1.3,11,2.2,12
2018/1/25 7:22,1.3,12,1.3,11,3.2,11
2018/1/25 7:23,1.4,12,1.4,11,2.7,13
2018/1/25 7:24,1.5,12,1.5,11,3.5,11
2018/1/25 7:25,1.5,12,1.5,12,1.8,9
2018/1/25 7:26,1.4,12,1.5,12,2.9,10
2018/1/25 7:27,1.3,12,1.4,12,1.9,13
2018/1/25 7:28,1.3,12,1.3,12,2.7,13
2018/1/25 7:29,1.2,12,1.3,12,2.7,13
2018/1/25 7:30,1.3,12,1.3,12,2,11
2018/1/25 7:31,1.2,12,1.3,12,2.5,14
2018/1/25 7:32,1.1,12,1.2,12,2.4,11
2018/1/25 7:33,1,12,1.1,12,1.6,14
2018/1/25 7:34,0.9,12,1,12,2.5,14
2018/1/25 7:35,0.9,12,0.9,12,2.1,13
2018/1/25 7:36,0.9,12,0.9,12,3.1,14
2018/1/25 7:37,1.1,12,1.1,12,3.7,13
2018/1/25 7:38,1.1,12,1.1,12,3.2,11
2018/1/25 7:39,1.1,12,1.2,12,3,12
2018/1/25 7:40,1.1,12,1.1,12,1.6,13
2018/1/25 7:41,1,12,1.1,12,1.4,13
2018/1/25 7:42,1.1,12,1.1,12,2,14
2018/1/25 7:43,1.1,12,1.1,12,1.9,12
2018/1/25 7:44,1.1,12,1.1,12,2.9,13
2018/1/25 7:45,1.2,12,1.2,12,1.9,12
2018/1/25 7:46,1.1,12,1.2,12,1.5,11
2018/1/25 7:47,1,11,1.1,12,2.6,14
2018/1/25 7:48,1,11,1,12,2.5,10
2018/1/25 7:49,1,11,1,12,1.9,10
2018/1/25 7:50,1,11,1,12,3.1,9
2018/1/25 7:51,1.1,11,1.1,12,2.2,12
2018/1/25 7:52,1.1,11,1.1,12,1.3,12
2018/1/25 7:53,1,11,1.1,12,0.9,11
2018/1/25 7:54,0.9,11,1,12,1.8,10
2018/1/25 7:55,0.8,11,0.9,12,0.9,12
2018/1/25 7:56,0.8,11,0.8,12,1.4,9
2018/1/25 7:57,0.9,11,0.9,11,3.5,12
2018/1/25 7:58,0.9,11,0.9,11,2.7,10
2018/1/25 7:59,0.9,11,0.9,11,2.2,12
2018/1/25 8:00,0.9,11,0.9,11,3,11
2018/1/25 8:01,1,11,1,11,2.4,10
2018/1/25 8:02,1,11,1,11,3.7,9
2018/1/25 8:03,1.1,11,1.1,11,3.5,9
2018/1/25 8:04,1.3,11,1.3,11,3.7,10
2018/1/25 8:05,1.3,11,1.3,11,2.7,9
2018/1/25 8:06,1.5,11,1.5,11,3.7,11
2018/1/25 8:07,1.5,11,1.5,11,4.4,12
2018/1/25 8:08,1.5,11,1.5,11,2.4,12
2018/1/25 8:09,1.6,11,1.6,11,3.6,10
2018/1/25 8:10,1.6,11,1.6,11,4.5,12
2018/1/25 8:11,1.6,11,1.6,11,4.4,12
2018/1/25 8:12,1.6,11,1.6,11,2.7,13
2018/1/25 8:13,1.7,11,1.7,11,3.6,9
2018/1/25 8:14,1.6,11,1.7,11,3.9,12
2018/1/25 8:15,1.8,11,1.8,11,4.7,12
2018/1/25 8:16,1.8,11,1.8,11,4.5,11
2018/1/25 8:17,1.8,11,1.8,11,3.3,11
2018/1/25 8:18,1.8,11,1.8,11,3,9
2018/1/25 8:19,1.8,11,1.8,11,3.3,13
2018/1/25 8:20,1.8,11,1.9,11,3.9,13
2018/1/25 8:21,1.8,12,1.8,11,2.7,8
2018/1/25 8:22,1.7,12,1.8,11,2.6,10
2018/1/25 8:23,1.7,11,1.8,11,3.3,10
2018/1/25 8:24,1.7,11,1.8,11,2.4,13
2018/1/25 8:25,1.6,11,1.7,11,2.7,9
2018/1/25 8:26,1.6,11,1.6,11,4.4,12
2018/1/25 8:27,1.5,11,1.6,11,3.1,13
2018/1/25 8:28,1.5,11,1.5,11,2.5,10
2018/1/25 8:29,1.4,11,1.5,11,2.1,9
2018/1/25 8:30,1.3,11,1.4,11,2.1,10
2018/1/25 8:31,1.3,10,1.3,12,3.3,10
2018/1/25 8:32,1.5,10,1.5,12,4.9,11
2018/1/25 8:33,1.6,10,1.6,11,4.3,11
2018/1/25 8:34,1.6,10,1.6,11,3.8,11
2018/1/25 8:35,1.7,10,1.7,10,3,10
2018/1/25 8:36,1.6,10,1.7,10,3.6,10
2018/1/25 8:37,1.6,10,1.6,10,1.5,8
2018/1/25 8:38,1.6,10,1.6,10,2.2,12
2018/1/25 8:39,1.6,11,1.6,10,2.2,9
2018/1/25 8:40,1.6,11,1.6,10,2.2,8
2018/1/25 8:41,1.5,11,1.6,10,3.2,11
2018/1/25 8:42,1.4,11,1.5,10,2.9,11
2018/1/25 8:43,1.3,11,1.4,10,3.6,10
2018/1/25 8:44,1.3,11,1.4,10,3,10
2018/1/25 8:45,1.1,11,1.2,10,2.2,11
2018/1/25 8:46,1.2,11,1.2,11,3.8,10
2018/1/25 8:47,1.3,11,1.3,10,3.9,11
2018/1/25 8:48,1.4,11,1.4,10,4.9,11
2018/1/25 8:49,1.4,11,1.5,11,5.4,9
2018/1/25 8:50,1.7,11,1.7,11,4.7,13
2018/1/25 8:51,1.7,11,1.7,11,3.5,13
2018/1/25 8:52,1.7,11,1.8,11,3.5,9
2018/1/25 8:53,1.8,11,1.8,11,4.7,12
2018/1/25 8:54,1.8,11,1.8,11,2.6,9
2018/1/25 8:55,1.7,11,1.8,11,0.5,8
2018/1/25 8:56,1.5,11,1.7,11,0.3,8
2018/1/25 8:57,1.3,11,1.5,11,0.1,11
2018/1/25 8:58,1.1,11,1.3,11,0.1,11
2018/1/25 8:59,1,11,1.1,11,0.3,12
2018/1/25 9:00,0.7,11,1,11,0.4,10
2018/1/25 9:01,0.5,11,0.6,11,0.3,11
2018/1/25 9:02,0.4,11,0.5,11,0,14
2018/1/25 9:03,0.1,11,0.3,11,0.3,12
2018/1/25 9:04,0,11,0.1,11,0,9
2018/1/25 9:05,0,11,0,11,0.5,8
2018/1/25 9:06,0,11,0,11,0.3,10
2018/1/25 9:07,0,11,0,11,0.1,11
2018/1/25 9:08,0,11,0,11,0.3,11
2018/1/25 9:09,0,11,0,11,0.3,11
2018/1/25 9:10,0,11,0,11,0.1,14
2018/1/25 9:11,0,11,0,11,0.3,11
2018/1/25 9:12,0,11,0,11,0.1,12
2018/1/25 9:13,0,11,0,11,0.3,10
2018/1/25 9:14,0,11,0,11,0.1,12
2018/1/25 9:15,0,11,0,11,0.1,12
2018/1/25 9:16,0,11,0,11,0.1,11
2018/1/25 9:17,0,11,0,11,0.3,10
2018/1/25 9:18,0,11,0,11,0.1,12
2018/1/25 9:19,0,11,0,11,0.1,11
2018/1/25 9:20,0,10,0,11,0.3,8
2018/1/25 9:21,0,11,0,11,0.3,11
2018/1/25 9:22,0,10,0,11,0.4,8
2018/1/25 9:23,0,11,0,11,0.3,11
2018/1/25 9:24,0,10,0,11,0.3,11
2018/1/25 9:25,0,10,0,11,0.4,10
2018/1/25 9:26,0,10,0,11,0.3,9
2018/1/25 9:27,0,11,0,11,0.3,11
2018/1/25 9:28,0,10,0,11,0.3,10
2018/1/25 9:29,0,10,0,11,0.1,8
2018/1/25 9:30,0,11,0,10,0.1,12
2018/1/25 9:31,0,11,0,11,0.1,12
2018/1/25 9:32,0,11,0,10,0.4,10
2018/1/25 9:33,0,11,0,11,0.1,1
2018/1/25 9:34,0,11,0,10,0.3,7
2018/1/25 9:35,0,11,0,10,0.4,10
2018/1/25 9:36,0,11,0,10,0.1,12
2018/1/25 9:37,0,10,0,11,0.1,10
2018/1/25 9:38,0,11,0,10,0.3,10
2018/1/25 9:39,0,11,0,10,0.4,8
2018/1/25 9:40,0,11,0,11,0.1,14
2018/1/25 9:41,0,10,0,11,0.1,7
2018/1/25 9:42,0,11,0,11,0.3,11
2018/1/25 9:43,0,11,0,11,0.1,11
2018/1/25 9:44,0.2,11,0.2,11,3.8,11
2018/1/25 9:45,0.4,11,0.4,11,3.2,12
2018/1/25 9:46,0.5,11,0.5,11,3,9
2018/1/25 9:47,0.6,11,0.6,11,2,10
2018/1/25 9:48,0.7,11,0.7,11,4.1,12
2018/1/25 9:49,0.9,11,0.9,11,2.7,11
2018/1/25 9:50,1,11,1,11,2.5,12
2018/1/25 9:51,1.3,11,1.3,11,4.8,10
2018/1/25 9:52,1.5,11,1.5,11,4.4,10
2018/1/25 9:53,1.9,11,1.9,11,6.1,11
2018/1/25 9:54,2,11,2,11,6,9
2018/1/25 9:55,2.1,11,2.1,11,4.4,10
2018/1/25 9:56,2.2,11,2.2,11,4.3,10
2018/1/25 9:57,2.4,11,2.4,11,5.1,9
2018/1/25 9:58,2.5,11,2.5,11,5.4,10
2018/1/25 9:59,2.6,11,2.6,11,4.2,11
2018/1/25 10:00,2.8,10,2.8,10,5.8,11
2018/1/25 10:01,2.8,11,2.8,10,4.9,12
2018/1/25 10:02,2.8,11,2.9,11,5.1,10
2018/1/25 10:03,2.8,11,2.8,11,5.7,11
2018/1/25 10:04,2.8,11,2.8,11,4.8,12
2018/1/25 10:05,2.8,11,2.8,11,5,11
2018/1/25 10:06,2.8,11,2.8,11,4.9,9
2018/1/25 10:07,2.9,11,2.9,11,6.1,12
2018/1/25 10:08,2.9,11,2.9,11,4.4,10
2018/1/25 10:09,3.1,11,3.1,11,5.6,10
2018/1/25 10:10,3.1,11,3.1,11,5.8,12
2018/1/25 10:11,2.9,11,3.1,11,3.2,11
2018/1/25 10:12,2.9,11,2.9,11,3.7,9
2018/1/25 10:13,2.9,11,2.9,11,5.7,13
2018/1/25 10:14,2.8,11,2.9,11,4.4,13
2018/1/25 10:15,2.9,11,2.9,11,4.8,12
2018/1/25 10:16,2.9,11,2.9,11,4.7,9
2018/1/25 10:17,2.8,11,2.9,11,5,11
2018/1/25 10:18,2.8,11,2.8,11,5.2,10
2018/1/25 10:19,2.6,11,2.8,11,5.2,9
2018/1/25 10:20,2.5,11,2.6,11,5,11
2018/1/25 10:21,2.6,11,2.6,11,4.9,9
2018/1/25 10:22,2.7,11,2.7,11,4.3,10
2018/1/25 10:23,2.7,11,2.7,11,6.4,10
2018/1/25 10:24,2.6,11,2.7,11,4.3,13
2018/1/25 10:25,2.4,11,2.6,11,3.7,13
2018/1/25 10:26,2.4,11,2.4,11,5.5,9
2018/1/25 10:27,2.5,11,2.5,11,5.5,9
2018/1/25 10:28,2.5,11,2.5,11,5.2,10
2018/1/25 10:29,2.5,11,2.6,11,5.1,8
2018/1/25 10:30,2.4,11,2.5,11,3.5,11
2018/1/25 10:31,2.2,11,2.3,11,2.2,10
2018/1/25 10:32,2.2,11,2.2,11,3.9,10
2018/1/25 10:33,2.1,11,2.2,11,4.3,11
2018/1/25 10:34,2.1,11,2.1,11,5.8,8
2018/1/25 10:35,2.3,11,2.3,11,6.3,9
2018/1/25 10:36,2.4,11,2.4,11,4.4,13
2018/1/25 10:37,2.4,11,2.4,11,5.4,11
2018/1/25 10:38,2.4,11,2.4,11,5.5,10
2018/1/25 10:39,2.4,11,2.4,11,4.8,9
2018/1/25 10:40,2.4,11,2.4,11,4.2,9
2018/1/25 10:41,2.7,11,2.7,11,7.1,10
2018/1/25 10:42,2.7,11,2.7,11,4.5,10
2018/1/25 10:43,2.5,11,2.6,11,3.3,13
2018/1/25 10:44,2.5,11,2.6,11,3.7,10
2018/1/25 10:45,2.2,11,2.4,11,2,9
2018/1/25 10:46,2,11,2.2,11,3.5,9
2018/1/25 10:47,1.9,11,2,11,3.6,10
2018/1/25 10:48,1.8,11,1.9,11,2.1,11
2018/1/25 10:49,1.7,11,1.7,11,3.3,11
2018/1/25 10:50,1.8,11,1.8,11,6.1,10
2018/1/25 10:51,1.7,11,1.8,11,6,10
2018/1/25 10:52,1.7,11,1.7,11,5.7,9
2018/1/25 10:53,1.8,11,1.8,11,4.4,11
2018/1/25 10:54,1.9,11,1.9,11,5.6,10
2018/1/25 10:55,2,11,2,11,5.6,11
2018/1/25 10:56,2.2,11,2.2,11,7.2,9
2018/1/25 10:57,2.2,11,2.2,11,5.4,11
2018/1/25 10:58,2.5,11,2.5,11,6.7,10
2018/1/25 10:59,2.7,11,2.7,11,6,10
2018/1/25 11:00,2.9,11,2.9,11,5.8,11
2018/1/25 11:01,2.9,11,2.9,11,6.7,10
2018/1/25 11:02,3,10,3,11,5.7,11
2018/1/25 11:03,3.2,10,3.2,10,6.2,11